DW7281 Weather Reports


Display with metric or nautical units.
time (UTC)temp
F
wind
direction
speed
MPH
gust
MPH
rain 1hr
in
rain 24hr
in
rain mn
in
humidity
%
barometer
mb
20260505231548 65 28 1.0 7.0 0.00 0.00 0.00 82 1022.8
20260505230049 65 32 2.0 8.0 0.00 0.00 0.00 82 1022.7
20260505224548 66 0 2.0 6.0 0.00 0.00 0.00 81 1022.6
20260505223052 66 55 1.0 7.0 0.00 0.00 0.00 81 1022.6
20260505221547 65 0 0.0 3.0 0.00 0.00 0.00 83 1022.7
20260505220049 63 0 0.0 3.0 0.00 0.00 0.00 85 1022.5
20260505214545 62 0 0.0 3.0 0.00 0.00 0.00 85 1022.3
20260505213051 63 51 1.0 4.0 0.00 0.00 0.00 85 1022.1
20260505211547 61 0 0.0 0.0 0.00 0.00 0.00 87 1022.1
20260505210048 60 0 0.0 0.0 0.00 0.00 0.00 89 1022.0
20260505204549 59 0 0.0 0.0 0.00 0.00 0.00 91 1021.9
20260505203056 59 0 0.0 0.0 0.00 0.00 0.00 91 1021.9
20260505201550 59 0 0.0 0.0 0.00 0.00 0.00 91 1021.6
20260505200051 58 0 0.0 0.0 0.00 0.00 0.00 91 1021.6
20260505194552 58 0 0.0 3.0 0.00 0.00 0.00 91 1021.7
20260505193105 58 30 0.0 4.0 0.00 0.00 0.00 91 1021.5
20260505191558 59 38 0.0 9.0 0.00 0.00 0.00 91 1021.3
20260505190045 59 32 1.0 4.0 0.00 0.00 0.00 91 1021.1
20260505184553 59 55 0.0 4.0 0.00 0.00 0.00 91 1020.8
20260505183052 59 27 1.0 6.0 0.00 0.00 0.00 90 1020.9
20260505181540 59 0 0.0 7.0 0.00 0.00 0.00 90 1020.8
20260505180052 59 50 0.0 3.0 0.00 0.00 0.00 90 1021.0
20260505174545 59 0 0.0 4.0 0.00 0.00 0.00 90 1021.0
20260505173046 60 0 0.0 6.0 0.00 0.00 0.00 91 1020.9
20260505171548 60 12 1.0 5.0 0.00 0.00 0.00 91 1021.1
20260505170043 60 20 0.0 4.0 0.00 0.00 0.00 91 1021.3
20260505164549 60 0 1.0 5.0 0.00 0.00 0.00 90 1021.2
20260505163052 60 9 0.0 4.0 0.00 0.00 0.00 90 1021.3
20260505161546 60 0 0.0 4.0 0.00 0.00 0.00 90 1021.5
20260505153101 62 0 0.0 5.0 0.00 0.00 0.00 89 1021.5
20260505151551 62 0 0.0 5.0 0.00 0.00 0.00 89 1021.6
20260505124544 63 0 0.0 0.0 0.00 0.00 0.00 82 1022.6
20260505123053 63 0 0.0 0.0 0.00 0.00 0.00 81 1022.6
20260505121550 64 0 0.0 0.0 0.00 0.00 0.00 81 1022.1
20260505120055 63 0 0.0 0.0 0.00 0.00 0.00 82 1022.1
20260505114546 64 0 0.0 0.0 0.00 0.00 0.00 82 1022.0
20260505113052 64 0 0.0 0.0 0.00 0.00 0.00 83 1022.2
20260505111548 65 0 0.0 0.0 0.00 0.00 0.00 82 1022.3
20260505101547 66 0 0.0 0.0 0.00 0.00 0.00 78 1022.3
20260505100051 66 0 0.0 0.0 0.00 0.00 0.00 78 1022.0
20260505094549 67 0 0.0 0.0 0.00 0.00 0.00 78 1022.1
20260505093048 67 0 0.0 0.0 0.00 0.00 0.00 77 1021.9
20260505091610 67 0 0.0 0.0 0.00 0.00 0.00 76 1022.0
20260505090104 67 0 0.0 0.0 0.00 0.00 0.00 75 1021.8
20260505084607 67 0 0.0 0.0 0.00 0.00 0.00 75 1021.6
20260505083104 68 0 0.0 0.0 0.00 0.00 0.00 74 1021.5
20260505081556 68 0 0.0 0.0 0.00 0.00 0.00 73 1021.2
20260505080059 68 0 0.0 0.0 0.00 0.00 0.00 72 1020.8
20260505074550 68 0 0.0 0.0 0.00 0.00 0.00 70 1020.7
20260505073055 69 0 0.0 0.0 0.00 0.00 0.00 66 1020.5
20260505071549 69 0 0.0 0.0 0.00 0.00 0.00 66 1020.5
20260505070054 70 0 0.0 0.0 0.00 0.00 0.00 64 1020.4
20260505064550 70 0 0.0 0.0 0.00 0.00 0.00 62 1020.3
20260505063052 71 0 0.0 0.0 0.00 0.00 0.00 62 1020.2
20260505061547 71 0 0.0 0.0 0.00 0.00 0.00 61 1020.1
20260505060100 71 0 0.0 0.0 0.00 0.00 0.00 62 1020.1
20260505054552 71 0 0.0 0.0 0.00 0.00 0.00 64 1020.0
20260505053050 71 0 0.0 0.0 0.00 0.00 0.00 65 1019.9
20260505051550 71 0 0.0 1.0 0.00 0.00 0.00 65 1020.0
20260505041553 72 0 0.0 0.0 0.00 0.00 0.00 66 1019.7
20260505040056 73 0 0.0 0.0 0.00 0.00 0.00 66 1019.9
20260505034545 73 0 0.0 1.0 0.00 0.00 0.00 63 1019.8
20260505033048 74 0 0.0 3.0 0.00 0.00 0.00 63 1020.1
20260505031544 73 0 0.0 1.0 0.00 0.00 0.00 63 1019.8
20260505030104 73 0 0.0 1.0 0.00 0.00 0.00 63 1020.1
20260505024553 75 0 0.0 1.0 0.00 0.00 0.00 59 1020.2
20260505023051 76 92 0.0 6.0 0.00 0.00 0.00 57 1020.2
20260505021552 74 0 0.0 1.0 0.00 0.00 0.00 59 1020.4
20260505020049 72 0 0.0 15.0 0.00 0.00 0.00 64 1020.8
20260505014607 72 0 0.0 0.0 0.00 0.00 0.00 64 1021.0
20260505013054 73 0 0.0 0.0 0.00 0.00 0.00 64 1021.3
20260505011555 73 0 0.0 0.0 0.00 0.00 0.00 65 1021.6
20260505010058 73 0 0.0 0.0 0.00 0.00 0.00 65 1021.8
20260505004553 71 0 0.0 0.0 0.00 0.00 0.00 68 1022.0
20260505003056 71 0 0.0 0.0 0.00 0.00 0.00 69 1022.4
20260505001555 71 0 0.0 0.0 0.00 0.00 0.00 69 1022.7
20260505000048 70 0 0.0 0.0 0.00 0.00 0.00 72 1022.6
20260504234551 67 0 0.0 0.0 0.00 0.00 0.00 78 1022.8
20260504233047 66 0 0.0 0.0 0.00 0.00 0.00 81 1022.8